RH
16 16 15 15 16 15 12 12 10 9 9 11 10 10 12 14 23 41 50 45 38 30 24 22 19 23 25 24 23 22 21 22 22 24 27 25 24 22 19 22 24 26 28 29 30 32 33 36 38
20 19 19 19 19 15 14 13 12 11 11 12 10 12 13 29 22 30 30 38 38 27 26 26 21 23 27 25 24 22 21 22 24 24 24 25 24 22 19 23 24 27 26 27 28 30 32 32 32
22 22 21 21 20 17 16 16 15 13 12 11 12 13 14 22 25 24 24 26 28 27 27 26 23 24 27 25 24 23 21 22 23 24 24 24 25 23 20 23 25 28 28 29 31 31 31 31 31
23 22 22 21 19 18 22 20 14 14 15 14 13 13 17 20 21 23 24 24 28 33 29 27 25 26 28 26 26 23 22 23 23 24 25 24 25 24 22 23 26 28 29 31 31 31 30 31 33
25 25 25 25 23 21 21 25 22 19 19 19 18 17 19 25 21 19 22 26 34 39 33 31 28 27 29 27 27 24 23 24 23 24 27 26 25 24 22 24 27 29 30 31 31 29 29 33 36
25 25 26 27 27 30 29 28 26 26 23 24 23 22 20 24 22 19 21 26 34 37 38 37 32 29 30 30 29 26 25 24 25 25 27 28 26 25 24 25 28 31 32 32 31 30 31 35 35
26 26 28 27 27 28 32 36 29 27 28 26 30 25 22 29 28 21 22 26 30 41 41 41 35 32 32 32 30 28 27 26 25 26 27 28 29 28 27 26 28 31 33 34 31 30 33 34 35
23 26 27 27 26 26 29 31 30 27 27 25 28 27 29 30 29 24 24 23 29 34 41 40 35 34 35 34 32 30 29 28 27 27 28 29 30 31 30 29 31 32 33 34 31 32 33 35 36
21 21 22 23 23 21 24 25 26 25 20 17 19 20 24 27 26 28 25 22 32 33 39 41 36 35 36 35 33 32 31 30 29 29 29 31 31 31 32 31 32 33 34 33 32 33 35 35 36
22 23 23 22 18 17 20 24 23 19 16 16 15 15 16 17 20 25 23 23 24 25 34 41 46 42 38 37 35 35 33 31 29 30 30 31 32 31 32 33 33 33 34 33 33 34 34 34 35
24 23 24 23 21 21 21 22 20 18 17 16 15 15 15 15 14 13 14 17 24 23 24 40 46 51 47 41 40 37 34 33 30 29 30 32 32 32 33 33 34 34 33 32 33 33 33 33 35
25 28 27 25 24 25 24 23 22 20 19 18 17 16 16 14 14 13 13 12 14 23 25 30 46 52 56 52 46 41 37 34 31 30 30 32 33 35 38 42 42 41 39 33 33 34 34 34 37
27 25 26 26 25 23 22 21 21 20 19 18 17 17 16 16 17 17 16 14 13 14 23 28 38 50 55 61 56 48 43 37 34 31 30 32 35 35 41 46 47 45 38 35 33 34 36 37 38
25 25 24 23 22 21 22 20 20 18 18 18 18 17 16 16 16 16 18 18 16 14 13 22 30 46 50 58 63 60 50 45 40 34 31 34 38 38 42 45 48 49 42 40 37 37 37 39 41
30 27 24 23 21 20 20 20 20 19 18 19 18 17 17 17 18 18 19 18 18 16 14 11 21 32 55 49 55 68 60 52 46 42 36 34 39 41 44 47 48 47 42 40 43 43 47 52 47
23 23 24 20 19 19 19 20 20 20 20 20 19 18 20 21 24 24 22 23 24 19 15 14 12 21 43 51 51 62 68 59 51 47 44 41 38 40 44 47 49 48 45 40 44 41 44 47 52
25 23 21 21 19 18 19 20 23 25 22 21 25 30 29 28 25 24 24 24 23 22 23 16 15 15 23 35 52 49 73 68 56 48 46 44 43 39 42 50 48 48 50 46 47 42 47 47 49
27 25 24 22 18 19 21 24 28 27 26 33 33 34 32 30 27 24 23 20 21 22 24 25 18 14 17 23 38 57 51 74 68 58 48 47 43 42 41 49 50 50 51 53 48 46 49 48 47
28 22 20 20 20 22 25 26 27 34 34 36 37 36 34 33 31 29 27 27 25 23 23 25 23 17 14 18 23 49 64 58 76 69 51 46 46 45 43 44 48 49 47 50 48 45 50 53 51
23 24 24 23 24 24 24 23 35 39 40 42 41 38 34 33 30 29 29 30 28 26 29 30 29 25 22 12 20 32 54 62 67 79 59 47 41 41 42 42 46 45 46 48 51 47 48 52 57
27 27 27 27 24 22 23 26 49 51 43 46 43 39 39 38 36 35 36 35 31 32 34 33 32 31 29 22 14 23 44 66 74 82 73 52 43 40 40 43 47 45 46 44 51 52 48 50 53
29 28 29 26 26 26 24 26 26 50 43 41 42 42 43 40 40 43 42 41 39 39 40 42 40 39 36 30 24 18 24 68 69 75 82 64 49 40 40 40 46 44 47 46 48 47 52 57 54
27 27 26 23 28 34 32 33 46 46 51 50 47 44 45 46 50 50 49 50 47 47 51 53 49 47 46 41 32 23 23 30 72 71 87 75 58 46 39 40 42 46 45 49 45 44 50 57 55
29 27 29 37 40 50 46 46 65 53 61 56 49 49 51 53 55 58 56 56 53 50 51 54 51 46 50 51 42 30 27 25 55 80 79 91 70 53 45 43 42 47 50 50 46 45 49 52 51
35 40 39 40 63 57 51 55 71 64 61 63 60 56 58 60 62 62 60 58 57 57 58 63 60 49 46 46 51 41 28 26 32 80 73 89 75 62 47 42 41 43 47 47 50 49 52 54 64
45 33 40 52 45 38 35 63 71 69 71 67 62 63 69 68 70 73 69 67 66 65 66 70 66 56 53 51 48 44 36 32 24 78 83 80 73 63 51 46 44 42 48 48 52 55 65 66 69
46 39 50 42 36 44 50 74 72 81 75 70 65 66 69 73 78 79 79 78 73 73 77 77 75 65 68 69 53 54 50 47 32 55 87 77 82 72 62 54 51 51 59 66 81 78 74 66 66
28 37 40 58 60 47 42 78 82 78 74 71 69 68 72 77 83 87 86 84 82 80 81 85 79 81 82 91 95 66 62 61 50 44 91 97 87 81 76 65 65 72 84 87 88 75 68 65 65
54 47 49 44 40 44 46 66 76 77 72 77 71 71 74 80 87 88 88 90 89 88 83 83 87 95 96 90 98 83 75 71 57 64 86 99 91 75 81 71 72 94 91 89 88 84 79 72 70
32 43 42 48 43 59 63 78 84 75 78 76 72 72 76 85 89 91 90 89 88 90 91 92 95 93 97 94 98 86 99 87 67 62 98 83 97 91 88 80 76 95 96 94 89 88 81 73 73